Simultaneous Nadir Overpasses (SNOs) Predictions

Prediction of SNOs over PacNW region [( 10.00, 139.50) to ( 22.70, 165.60)] between AQUA and NPP Satellites:

Table of predicted SNOs over PacNW region for the next 30.0 days since TLE Epoch: 2/8/2019
Index Date (AQUA) Time (AQUA) AQUA Lat,Lon Date (NPP) Time (NPP) NPP Lat,Lon Distance(km) Time Diff (sec)
1 02/10/2019 03:31:52 22.64, 147.53 02/10/2019 03:28:23 25.96, 144.86 457.60 209
2 02/15/2019 15:59:28 22.63, 147.51 02/15/2019 16:01:52 23.28, 144.51 315.53 144
3 02/23/2019 15:10:02 22.61, 159.88 02/23/2019 15:11:04 23.20, 157.19 282.61 62
4 02/26/2019 03:31:53 22.69, 147.54 02/26/2019 03:28:23 26.47, 144.75 505.47 210
5 03/03/2019 15:59:29 22.61, 147.53 03/03/2019 16:01:44 23.27, 144.54 314.84 135




NCC Satellite Simultaneous Nadir Overpasses (SNOs) Prediction Service
